Theta_e
307 311 316 319 320 320 321 321 319 322 323 321 322 318 316 320 321 320 319 319 326 338 344 348 347 346 353 356 355 356 355 359 361 356 354 355 352 353 353 346 343 340 337 334 333 332 331 332 334 338 341 342 341 341 338 334 332 331 333 333 336 338 338 339 339 339 338 337 334 330 329 330 330 330 330 330 334 340 342 342 343 343 342 341 339 340 340 339 339 338 338 337 336 334 333 333 335
311 318 319 321 321 320 322 321 321 321 320 320 319 319 318 321 323 320 319 321 329 337 343 346 347 349 350 352 352 356 357 355 355 355 353 351 352 352 350 346 343 340 336 333 332 331 332 335 336 339 342 343 341 341 339 334 331 331 332 333 336 338 338 339 339 339 339 337 335 331 329 329 329 329 331 332 336 341 341 342 342 342 341 340 340 340 339 339 339 339 338 338 337 333 332 333 335
311 316 317 319 319 319 320 321 324 320 318 319 316 320 321 318 322 320 321 326 331 335 345 346 349 349 349 355 355 357 358 353 353 352 350 351 351 349 347 344 342 338 336 333 332 330 334 337 337 341 344 343 342 342 341 335 331 331 332 334 335 338 338 338 338 338 338 337 335 334 332 332 332 333 334 336 339 339 340 341 341 341 340 339 339 338 338 339 340 339 338 338 338 336 333 332 333
307 312 315 317 318 318 320 322 329 325 318 318 316 319 320 318 322 323 325 331 329 331 344 349 350 348 350 357 353 356 357 352 353 352 351 351 349 346 345 344 343 338 335 332 332 330 335 340 340 343 345 344 343 343 343 336 331 331 331 334 336 337 338 337 337 337 338 337 336 336 336 335 334 334 333 335 336 336 338 340 340 339 338 337 337 337 337 339 340 339 338 338 337 337 336 332 330
307 311 312 314 319 319 320 321 325 323 318 319 318 319 319 317 319 324 331 330 326 334 344 348 351 349 349 352 350 356 357 353 353 352 351 349 347 345 343 343 344 343 340 334 331 332 338 342 343 344 345 344 344 343 343 337 332 332 331 334 335 336 336 336 336 337 338 338 338 337 335 333 330 328 327 328 330 331 334 336 337 337 337 336 336 336 338 339 339 339 338 337 335 332 334 332 330
310 313 311 313 319 317 320 322 321 321 319 320 318 318 318 316 317 323 331 328 330 343 348 350 351 350 352 349 349 352 352 352 353 351 350 347 346 343 341 340 340 343 345 342 337 337 341 342 343 344 345 344 343 342 342 338 334 333 332 334 335 336 335 336 336 337 338 338 338 335 332 328 326 324 324 324 324 326 329 330 332 334 336 336 336 336 337 338 338 338 337 336 334 330 330 331 330
312 314 315 316 318 316 322 323 321 322 320 319 318 319 318 317 318 322 329 326 334 347 350 351 348 353 355 350 351 349 348 352 353 351 349 346 345 342 340 339 337 337 340 345 342 340 342 341 342 343 344 344 342 341 340 339 337 334 333 334 335 336 336 335 336 337 338 338 336 331 328 325 325 325 325 325 324 324 324 326 329 332 335 335 335 335 337 337 337 336 335 334 333 331 329 329 329
312 315 318 319 321 318 320 320 318 321 320 319 318 319 319 318 319 320 328 323 330 344 348 347 348 361 356 351 354 348 347 350 349 349 348 345 344 342 340 339 338 336 336 340 341 342 341 336 338 340 342 343 341 341 340 339 338 336 334 335 336 336 336 336 336 338 339 337 332 327 325 326 327 328 328 328 328 327 325 325 327 331 333 334 335 335 336 336 336 334 333 333 332 330 329 326 325
312 315 318 319 323 319 319 318 316 318 316 317 315 317 320 319 318 319 325 323 331 344 350 347 349 365 356 351 354 346 346 347 346 346 345 344 342 341 341 339 338 339 338 338 340 341 338 333 334 337 340 341 341 341 341 341 339 337 335 336 337 336 336 336 338 339 338 333 328 326 327 328 330 330 330 330 330 329 327 326 326 329 332 334 335 335 335 335 334 332 332 332 331 329 329 326 322
314 314 316 319 320 318 318 318 317 318 315 316 316 316 318 317 319 319 322 324 335 346 348 348 350 358 354 352 352 347 345 345 345 345 344 343 342 342 341 340 338 338 338 338 339 338 335 333 333 337 339 340 340 341 341 341 340 338 338 337 337 337 337 337 338 339 335 330 327 328 329 331 331 331 330 330 330 329 329 328 326 328 330 331 332 331 331 331 330 328 329 330 329 328 327 325 322
319 315 315 318 317 315 317 318 317 318 316 316 315 315 317 315 320 321 321 323 336 351 349 348 352 352 352 353 349 345 345 344 344 343 344 344 342 342 341 341 338 336 336 337 339 336 335 335 336 338 338 339 340 340 341 341 341 339 339 339 338 337 337 337 338 337 333 328 328 330 331 332 331 331 331 330 330 329 329 329 327 326 327 328 328 327 328 327 325 325 327 328 328 327 326 326 323
321 318 315 317 317 316 317 317 315 317 315 315 315 316 317 315 319 319 318 317 329 346 345 348 351 350 354 353 347 344 343 343 343 343 343 344 343 342 342 341 338 336 335 336 338 336 335 337 337 336 335 336 337 338 339 340 340 340 340 339 338 337 337 338 337 334 331 328 330 331 332 332 332 332 332 331 330 329 329 329 328 327 326 326 326 327 328 326 324 325 326 328 327 327 327 327 326
319 319 316 317 320 318 317 316 314 318 317 317 316 316 318 317 318 317 318 318 325 336 336 344 348 350 354 351 346 343 343 342 342 343 342 343 343 343 342 341 338 335 335 334 336 336 332 333 335 332 330 331 332 334 337 339 340 340 339 338 337 337 337 337 335 332 330 329 329 330 331 332 334 333 332 331 331 330 330 329 328 328 327 327 328 329 330 329 326 325 327 328 327 327 326 327 327
317 318 318 317 319 317 315 315 314 315 314 316 316 316 318 317 318 316 321 328 335 338 339 344 344 351 354 349 347 343 343 342 341 343 342 343 344 343 342 340 337 334 333 332 334 336 332 329 329 328 329 329 330 332 334 337 339 338 338 337 337 337 337 335 332 331 330 329 330 330 331 333 334 334 333 333 331 330 330 330 328 328 328 329 330 330 330 330 327 325 326 327 327 327 326 326 327
315 317 317 316 317 315 315 314 313 312 313 317 316 317 319 316 318 318 322 336 343 340 342 344 342 355 356 350 351 344 342 342 341 343 343 343 343 342 340 338 336 334 332 330 332 337 337 331 327 330 330 328 329 331 334 336 337 337 337 337 337 336 335 333 331 331 330 331 331 331 332 334 334 335 334 333 332 330 330 330 330 328 328 329 330 331 331 331 329 326 326 326 325 325 325 324 326
314 315 314 315 315 314 316 316 314 313 316 318 317 318 319 316 318 318 317 329 337 334 341 343 339 350 353 348 348 342 341 341 341 343 342 341 341 340 339 338 337 335 332 333 335 336 336 331 328 333 332 327 329 331 333 335 336 337 337 337 336 334 333 332 332 332 332 333 333 333 334 334 335 336 335 334 333 330 329 330 330 329 328 328 329 330 330 331 330 327 326 326 326 325 323 323 326
314 314 314 314 314 314 317 318 315 315 316 316 316 317 319 318 318 318 317 328 338 338 345 345 340 347 347 345 343 340 341 340 341 342 340 340 340 339 339 339 339 338 336 336 335 334 334 333 332 333 331 328 328 330 331 333 336 337 336 335 333 332 333 332 333 333 333 334 334 334 334 334 335 336 335 335 334 331 329 329 329 329 329 329 329 329 329 330 330 329 327 327 328 327 324 324 326
314 316 316 314 314 314 315 317 315 315 315 314 315 316 318 318 317 318 317 330 347 348 346 346 344 345 343 342 341 340 341 340 341 340 340 339 339 339 339 339 339 338 338 337 335 335 335 334 333 331 329 328 328 329 329 331 334 335 334 332 332 332 333 334 333 334 334 334 334 334 334 334 335 335 335 335 334 331 331 329 329 328 328 330 329 328 328 328 330 329 328 328 328 328 326 325 325
314 317 316 313 316 316 314 315 314 314 315 315 316 316 316 316 316 317 315 325 350 357 348 346 345 344 342 341 340 340 339 340 340 340 339 339 339 339 338 338 338 338 338 337 337 339 337 334 332 330 329 328 328 329 329 330 330 331 331 330 330 331 334 334 333 334 334 333 333 333 333 333 334 333 333 334 334 332 331 330 328 328 327 327 326 325 326 327 328 329 328 328 328 327 326 325 325
313 314 314 314 317 316 314 314 314 314 315 315 316 316 316 316 314 317 316 323 352 364 350 349 349 346 343 340 340 340 339 339 340 340 339 338 338 338 338 338 337 338 338 339 339 337 337 337 333 330 330 328 329 329 328 329 329 329 329 330 330 332 334 334 333 334 333 333 333 331 332 332 332 331 331 334 335 333 332 331 330 328 326 325 325 323 324 325 327 327 328 328 327 326 325 323 323
313 313 314 315 316 315 315 314 315 315 314 315 316 317 317 316 315 316 318 319 337 353 350 350 347 345 342 340 340 340 339 338 338 338 338 338 338 338 339 338 338 339 339 340 340 337 335 338 336 331 331 330 329 329 329 329 329 329 329 331 332 332 334 334 334 334 333 332 331 330 331 331 332 331 332 336 336 334 333 331 330 328 326 325 324 323 323 324 326 326 327 327 327 326 325 323 323
312 313 314 314 314 314 314 315 315 314 315 315 314 316 314 316 315 315 318 314 322 341 348 346 343 342 342 341 341 340 338 337 337 337 337 337 337 338 337 338 338 339 340 340 340 338 336 340 339 334 333 332 330 330 330 330 330 330 330 331 332 333 334 334 334 334 334 333 332 332 331 332 334 332 332 336 335 333 333 331 330 328 326 325 325 323 324 327 328 326 327 326 326 326 325 325 326
312 312 313 313 313 313 314 315 314 314 315 316 316 315 314 316 315 318 332 329 326 341 346 344 342 341 341 341 340 339 339 337 337 336 337 337 336 337 337 338 339 338 340 340 341 340 338 341 340 337 336 335 334 333 331 331 331 331 331 331 332 333 334 334 334 334 335 334 332 332 332 333 335 334 332 334 334 332 332 332 331 330 328 326 327 326 326 330 331 329 329 328 326 325 326 327 328
311 312 312 312 313 313 314 313 314 314 315 315 316 314 314 317 312 324 346 346 342 346 345 344 343 342 340 339 339 338 338 336 336 336 336 337 336 337 339 339 339 339 340 340 341 341 340 342 342 340 340 337 337 337 336 334 332 332 332 332 333 333 334 334 334 334 335 335 333 333 333 333 335 335 334 334 334 333 333 333 332 330 329 327 329 329 327 330 331 330 332 331 327 326 328 329 330
312 311 311 312 313 313 313 313 313 314 315 314 316 314 315 317 312 330 348 348 347 348 345 344 342 340 338 337 337 336 336 336 335 335 335 336 336 336 338 338 338 338 340 341 341 342 342 342 343 342 342 340 339 339 340 338 335 335 334 334 334 334 334 334 334 336 336 336 335 334 334 334 334 336 335 334 334 334 333 334 332 331 331 329 330 331 329 329 331 331 331 332 330 329 330 330 330
313 312 312 312 312 314 313 313 314 314 314 314 314 314 316 316 314 332 348 348 347 346 344 343 341 339 337 336 337 336 336 336 334 335 334 333 334 334 336 337 337 338 339 340 340 342 343 342 343 344 343 342 341 341 341 340 338 337 337 336 337 337 336 335 335 336 337 336 336 335 335 335 335 335 335 335 335 334 333 333 333 333 333 332 331 332 331 330 331 331 331 331 331 331 331 331 331
313 311 312 312 312 313 312 314 314 314 314 314 314 314 316 314 314 333 346 348 346 346 344 342 341 339 337 336 336 336 336 335 334 334 332 331 331 332 335 335 336 337 338 338 339 341 342 342 344 343 343 343 342 342 341 341 340 339 339 339 339 339 338 337 337 337 337 337 337 337 336 335 337 336 335 334 334 334 333 332 333 333 333 333 332 332 332 332 332 331 331 331 330 331 331 331 331
313 313 312 313 314 314 313 314 315 315 314 314 315 312 316 312 314 336 347 347 344 345 344 342 341 339 336 336 336 335 335 334 333 333 332 331 331 332 334 335 335 337 337 337 338 339 341 343 343 343 342 342 341 340 340 341 341 340 340 340 340 340 339 338 338 338 337 338 338 337 336 336 337 336 334 333 333 333 333 332 333 333 333 333 333 332 332 332 332 332 331 331 331 330 330 330 330
314 314 312 313 315 314 314 315 313 314 314 314 315 311 315 312 313 337 346 345 344 344 344 342 339 337 336 336 335 336 335 333 333 332 332 331 331 333 334 335 336 336 337 338 338 338 340 342 342 342 342 341 339 339 339 340 340 340 340 340 340 339 339 338 338 337 337 338 337 337 337 336 336 335 333 332 331 332 332 332 333 334 333 333 333 332 332 332 332 332 331 331 331 330 330 330 330
315 314 312 313 314 314 313 314 313 314 314 314 314 311 315 314 316 337 346 342 345 344 343 341 338 337 336 335 336 336 335 334 333 332 333 333 332 333 334 335 336 336 336 336 337 338 339 341 341 341 341 340 339 337 338 339 339 339 339 339 339 338 338 338 337 337 336 336 336 336 336 336 335 334 332 331 331 331 332 332 333 335 334 333 332 332 332 332 331 331 331 331 330 330 330 330 329
314 313 316 314 311 313 313 314 315 313 313 314 313 310 314 313 317 336 344 340 344 344 342 341 338 337 336 336 336 335 335 334 334 333 333 333 333 333 333 333 332 333 333 333 335 337 338 340 341 341 340 339 337 336 336 335 336 337 337 336 337 338 337 337 336 336 335 335 335 335 335 335 335 334 332 331 331 331 332 332 332 334 334 333 333 332 332 331 330 330 331 329 329 329 329 329 329
315 312 318 320 312 312 312 314 315 314 313 314 313 311 314 313 314 332 342 340 343 343 341 340 338 338 336 336 336 335 335 333 332 333 333 333 333 333 333 332 331 330 330 331 332 334 337 338 339 340 339 337 335 333 333 332 333 335 335 334 335 337 336 336 336 335 335 334 334 334 335 335 334 333 332 331 332 331 332 333 333 333 333 333 334 334 334 332 330 331 330 328 328 330 330 330 330
322 314 315 320 314 312 313 313 314 313 312 313 313 313 316 316 316 329 340 340 341 342 340 339 338 337 337 336 336 335 335 334 332 331 332 333 332 332 332 331 331 330 330 329 329 333 336 338 338 338 337 335 332 331 330 331 333 333 334 334 334 334 334 334 334 334 333 333 334 334 334 334 333 333 332 332 332 332 333 333 333 332 332 333 334 335 334 331 330 331 331 329 328 330 331 331 330
326 321 316 319 317 312 313 314 313 313 312 312 313 313 316 318 319 329 337 338 339 341 339 339 337 337 336 335 335 336 334 333 332 330 331 332 332 331 331 331 331 331 331 330 331 334 335 336 335 336 335 332 331 330 328 330 332 332 332 332 331 332 332 332 332 332 332 332 333 333 334 334 333 333 332 332 332 332 333 333 333 331 331 332 333 334 334 331 330 330 330 330 329 329 330 330 330
322 323 321 323 322 315 313 315 315 312 312 313 314 313 316 317 320 328 334 335 338 339 338 338 337 336 335 335 335 334 334 333 330 329 331 332 331 331 332 332 331 330 331 332 332 333 332 331 332 332 331 330 330 329 329 330 331 331 331 331 330 330 331 331 331 331 331 332 332 333 333 334 333 333 332 332 332 332 332 332 332 332 332 333 333 334 333 330 330 329 330 331 329 329 329 329 329
317 321 323 322 320 317 315 314 314 313 312 313 315 312 316 318 319 325 332 333 335 337 338 338 336 335 335 334 334 334 334 333 329 328 331 332 332 332 333 333 332 330 330 330 330 330 329 329 330 329 329 328 328 329 329 329 329 330 331 330 329 329 329 329 330 330 330 331 331 331 332 333 332 332 332 331 331 331 331 332 331 331 332 332 332 332 332 330 330 329 329 330 330 329 329 329 329
318 320 322 319 316 315 315 315 313 314 314 313 317 317 316 319 318 324 336 337 336 337 338 339 337 336 335 333 333 333 333 332 329 329 331 332 332 333 333 333 333 332 330 329 330 330 329 329 328 328 328 328 328 328 328 328 329 330 330 330 329 329 329 328 328 328 329 329 329 330 331 331 331 330 330 330 330 329 329 330 330 330 330 330 331 331 332 331 330 329 329 330 331 330 329 329 330
323 322 319 316 316 315 315 319 316 320 324 316 318 323 318 323 324 325 338 339 335 337 338 338 338 336 334 334 333 333 333 332 331 331 331 332 333 332 333 335 334 333 332 330 330 330 330 329 328 327 328 327 326 327 327 327 328 328 329 329 328 329 329 328 328 328 327 328 327 327 327 326 326 327 328 328 329 329 328 328 328 329 329 329 330 330 331 331 331 330 329 330 331 331 330 329 330
322 319 318 317 316 317 318 325 323 325 329 318 319 323 321 332 331 325 336 341 336 336 337 337 337 337 335 334 334 333 334 335 334 334 333 331 332 331 333 335 334 334 333 332 331 331 331 329 326 327 328 327 326 326 325 325 326 327 327 326 327 327 327 327 326 325 324 325 324 324 324 323 323 325 326 326 328 329 328 327 327 328 329 329 330 330 330 331 331 330 329 330 331 331 330 329 330
324 317 314 316 317 315 317 325 330 329 326 319 322 328 327 333 331 322 328 337 337 334 335 336 335 336 335 334 334 333 335 335 334 336 335 331 330 331 333 335 334 334 334 333 333 332 331 329 326 327 329 326 325 325 323 323 324 326 326 327 326 325 324 324 324 323 323 324 323 323 322 321 321 323 324 324 326 328 327 325 325 327 328 328 329 330 330 330 331 330 329 330 330 330 330 329 329
334 329 315 316 318 316 316 323 335 339 335 332 328 328 337 338 326 322 324 329 337 335 333 335 334 334 334 334 334 333 335 334 334 336 336 332 328 329 332 334 334 334 334 334 333 332 332 329 325 327 329 326 324 324 323 323 323 325 325 324 323 322 321 321 322 322 322 322 323 322 322 321 320 322 324 324 325 326 325 325 325 326 326 327 327 328 328 329 330 330 330 330 330 330 329 328 328
330 338 327 321 319 318 321 324 334 337 332 335 325 320 339 345 326 324 325 326 333 333 333 335 333 333 333 334 335 334 334 333 333 335 335 332 328 328 332 334 334 334 335 334 333 332 333 330 324 325 327 325 324 325 325 325 322 323 323 321 320 321 322 322 321 321 321 321 322 322 321 321 321 321 322 324 324 325 325 325 326 326 326 326 326 326 326 326 327 328 329 329 329 330 329 328 327
319 332 336 327 322 321 322 322 325 326 323 328 326 319 332 340 329 328 326 323 326 325 330 334 331 332 333 333 334 334 334 333 333 334 334 331 328 327 330 333 334 334 334 334 333 332 333 331 323 322 326 325 326 326 325 324 323 322 321 320 320 321 321 322 321 321 322 322 322 321 321 321 321 321 321 322 323 324 324 323 325 325 326 326 325 324 325 325 326 326 327 328 328 328 328 328 327
318 336 337 325 321 319 323 324 319 323 324 328 332 322 322 329 330 329 323 319 322 321 324 329 330 331 333 333 333 333 332 331 332 334 334 331 328 327 329 332 334 334 335 334 334 333 333 332 323 321 327 327 326 326 324 324 323 322 321 320 318 318 321 322 322 322 322 322 321 321 321 320 320 320 320 320 321 323 322 322 322 323 326 326 324 324 325 325 325 326 326 327 327 326 327 327 327
322 341 332 320 319 320 328 326 319 325 322 322 334 325 317 330 336 330 323 319 322 324 322 324 328 330 332 333 332 332 331 330 331 333 333 330 327 327 329 332 333 334 335 335 335 334 333 333 324 322 329 327 323 324 323 323 323 322 321 318 317 319 321 322 322 322 321 321 320 320 320 320 320 320 320 318 319 322 322 322 322 323 325 324 323 324 324 324 324 325 325 325 325 326 326 327 327
326 329 322 320 323 325 329 324 324 332 323 322 338 328 315 330 341 331 322 319 323 326 322 321 326 329 332 333 333 332 329 328 330 331 331 327 326 329 329 331 333 334 336 335 336 335 334 334 327 324 328 326 322 323 323 323 322 322 320 318 317 320 322 322 322 321 320 320 320 320 320 320 319 319 318 316 316 319 319 319 319 320 322 322 322 322 322 323 323 323 324 324 325 325 324 324 323
323 321 319 323 329 332 337 336 331 327 323 327 337 328 317 325 337 334 323 320 324 325 323 322 325 328 332 333 332 331 329 329 329 330 329 326 326 328 328 330 332 334 335 335 336 336 335 335 329 325 327 326 323 322 322 322 322 321 319 317 318 320 322 321 321 320 321 321 320 319 318 317 316 316 316 316 314 315 315 314 313 312 314 316 316 317 318 319 321 322 322 322 323 322 319 318 318
319 322 322 325 329 333 340 341 329 319 326 334 333 327 323 323 330 335 330 326 325 323 324 325 328 331 331 331 330 330 330 330 330 331 331 330 329 328 327 329 330 331 333 333 335 336 334 334 331 327 327 325 323 322 322 321 321 319 317 317 319 321 321 320 321 321 321 321 320 317 315 314 314 314 314 314 314 314 314 313 311 311 312 311 310 310 313 314 316 319 321 321 320 319 317 317 316
318 321 323 323 321 324 332 334 327 324 329 331 327 324 322 327 332 330 328 326 322 321 322 324 327 329 328 329 329 330 331 332 333 333 334 335 334 328 326 328 328 329 330 330 333 335 334 333 331 327 327 326 325 324 322 321 321 317 316 319 320 321 320 319 321 323 322 321 319 316 314 313 313 313 313 313 313 314 314 312 312 313 313 311 308 307 307 308 309 312 316 318 318 317 316 316 316
313 315 322 323 320 320 326 329 326 327 330 329 328 324 323 328 330 326 325 323 320 319 319 322 325 327 328 329 328 329 330 331 333 334 336 340 335 326 325 328 327 328 329 328 330 332 332 331 329 327 325 324 324 324 322 321 319 316 317 321 321 320 320 319 320 322 322 320 317 315 314 312 311 311 311 311 312 312 312 312 314 314 313 310 308 306 305 305 305 305 308 310 313 314 313 313 314
315 317 318 320 325 326 326 328 327 326 329 330 327 325 328 328 325 325 324 319 317 319 320 324 326 327 329 329 328 330 330 331 332 334 337 338 330 325 326 327 327 327 327 328 328 329 329 329 327 324 323 324 325 325 323 322 317 314 317 321 320 320 319 318 320 322 321 319 316 315 314 311 309 308 308 310 311 311 311 313 314 314 313 312 310 306 305 305 304 303 303 304 306 308 310 312 312
318 318 314 314 323 330 326 327 334 333 328 327 325 326 332 331 327 326 322 318 320 322 323 326 327 328 329 329 330 330 330 333 334 335 337 334 324 324 327 328 328 327 326 327 328 328 328 328 327 325 325 325 325 324 324 323 318 315 318 321 320 320 319 318 320 321 320 317 316 316 314 311 309 308 309 311 311 311 311 312 314 314 314 315 313 309 306 305 304 303 303 303 304 304 306 310 312
320 314 314 317 318 325 325 323 329 331 326 327 325 323 326 326 324 323 321 320 321 322 325 325 327 327 328 329 329 329 330 332 333 334 336 331 323 322 325 328 329 326 325 327 327 327 328 328 328 327 326 325 325 324 323 323 320 317 319 321 320 320 319 318 319 321 320 317 317 317 314 312 311 309 310 312 312 311 308 309 312 314 315 315 315 314 310 305 304 304 305 304 304 304 304 307 310
320 312 316 320 315 323 332 327 323 321 323 329 325 321 323 322 324 327 324 320 318 321 325 325 326 327 327 328 327 327 328 328 329 330 330 326 321 321 323 325 328 326 326 327 326 327 327 327 327 327 326 327 326 325 323 323 320 318 320 322 321 320 319 317 318 320 320 318 318 318 315 314 313 311 310 312 312 311 308 306 307 311 314 314 314 314 311 307 305 305 306 306 305 304 303 304 306
315 313 318 320 316 323 329 325 322 320 321 325 322 322 322 320 324 328 324 319 318 320 324 325 326 325 326 327 327 327 329 329 329 329 329 326 321 320 321 323 327 328 327 327 327 327 327 326 326 326 326 327 326 325 324 321 319 318 320 322 321 320 319 317 318 319 319 319 319 318 317 315 315 313 311 311 312 311 308 306 305 306 309 312 312 312 311 309 307 307 307 307 309 308 305 305 306
315 317 317 317 321 326 322 319 323 323 321 323 323 323 325 326 327 323 321 323 323 322 325 326 326 325 325 326 327 329 330 332 331 330 331 327 320 320 321 321 325 327 327 328 328 327 327 326 326 326 325 325 325 324 323 321 319 319 322 322 321 321 320 319 318 319 319 319 319 319 318 317 316 315 313 311 312 311 309 307 305 305 306 307 309 311 312 311 310 310 308 308 310 309 307 306 307
314 317 316 315 319 320 318 318 320 323 324 325 325 323 329 338 333 321 320 323 324 326 328 327 326 326 325 325 327 329 330 332 332 330 330 325 319 319 321 320 323 326 327 328 328 327 325 324 325 325 324 324 324 323 322 322 323 322 322 322 321 321 320 319 319 319 319 319 320 320 319 318 317 317 315 313 312 311 309 308 307 306 306 306 307 310 311 310 311 312 311 309 309 309 309 309 308
309 311 313 319 321 320 320 320 321 326 328 328 328 324 328 336 330 322 322 324 325 327 328 327 327 326 326 326 326 327 330 332 330 330 330 323 319 319 320 319 321 323 325 327 328 328 325 323 323 323 322 323 324 323 321 322 324 324 322 322 321 320 320 320 320 320 320 320 320 320 320 319 318 318 317 316 314 313 312 310 309 308 308 307 307 307 308 309 310 312 312 311 311 310 311 312 311
Wind_Speed
1 3 3 2 3 5 3 2 1 2 2 1 5 1 4 4 3 5 8 7 1 3 2 7 6 7 7 9 11 10 7 2 2 4 3 2 18 26 21 28 35 34 32 27 25 23 21 22 22 24 25 25 25 26 26 25 25 24 23 22 21 19 19 18 18 17 17 17 17 18 17 17 17 16 16 16 16 15 14 14 14 15 15 17 18 18 17 17 16 15 15 14 14 13 13 13 14
2 2 2 3 3 1 1 2 3 1 4 3 4 4 5 3 5 7 8 7 4 3 2 9 10 12 12 12 10 8 9 6 4 4 3 13 21 20 25 34 36 35 33 28 26 24 22 22 23 24 24 25 25 25 25 25 25 24 23 22 21 20 19 18 18 17 17 17 17 17 17 17 16 16 16 16 16 15 15 14 14 14 16 17 17 17 15 15 15 14 14 13 13 13 13 14 14
2 2 2 3 2 2 0 3 3 2 3 3 4 3 4 4 7 9 9 7 8 9 5 8 7 6 6 9 5 5 4 3 8 7 6 16 15 15 28 33 35 35 33 30 27 25 23 22 23 23 24 25 24 24 24 23 25 24 23 22 21 20 19 19 17 17 16 16 16 15 16 16 16 15 15 15 15 15 15 15 14 14 14 15 15 15 14 14 13 13 13 12 12 13 13 14 14
3 2 2 3 2 2 3 2 2 4 3 4 4 4 3 4 8 8 8 7 6 9 5 4 5 5 6 12 5 4 5 2 7 7 6 11 14 16 22 23 26 30 32 30 26 25 22 22 23 22 23 24 24 23 23 23 24 24 23 22 21 21 19 19 17 16 16 16 15 14 14 15 15 15 14 14 14 14 15 16 15 14 14 13 13 13 13 13 13 13 13 12 11 11 11 13 15
2 2 2 2 3 1 2 1 1 3 4 3 2 4 3 6 9 8 7 5 2 5 7 4 4 1 6 7 1 3 4 5 9 10 11 15 22 22 21 21 20 18 22 25 24 24 21 21 21 21 22 22 23 23 22 23 23 23 23 22 21 20 20 18 17 16 15 16 15 14 14 13 14 14 14 13 13 14 14 14 14 14 14 14 14 13 13 13 13 13 13 12 10 9 8 10 14
2 3 1 1 1 1 2 0 1 3 6 4 3 5 3 9 10 9 8 4 5 7 9 6 6 5 4 3 2 3 2 6 10 12 16 19 25 28 30 30 24 16 12 15 20 21 21 21 20 21 21 21 22 22 23 23 23 23 23 22 21 21 20 18 17 15 15 15 15 14 14 13 13 13 14 13 13 13 13 12 12 14 14 14 14 14 14 14 13 12 12 11 9 9 8 8 11
5 4 2 2 1 1 4 2 3 5 6 6 5 7 7 11 10 7 8 1 6 5 8 9 10 10 3 0 3 8 10 10 12 16 24 24 28 29 31 32 30 25 15 11 15 19 20 20 20 20 20 21 21 22 23 22 23 23 23 23 22 21 19 18 17 16 16 16 15 14 14 14 14 14 14 14 14 13 12 12 12 13 14 13 13 13 13 12 11 9 8 7 7 8 8 7 9
5 2 1 3 2 2 3 2 4 5 5 3 5 8 9 11 10 7 7 1 4 2 6 6 7 8 1 2 5 9 19 23 24 28 32 29 29 28 27 29 28 27 22 15 14 17 19 20 20 20 21 21 21 21 22 22 22 23 23 22 22 21 19 18 17 16 16 16 15 15 15 15 15 15 14 14 14 14 13 11 11 12 12 11 11 11 10 9 7 6 4 5 6 6 7 6 8
3 1 1 3 2 2 0 3 5 5 5 6 7 10 11 10 10 9 8 2 4 5 5 5 2 7 3 8 8 6 15 26 33 32 32 31 30 27 25 27 26 24 23 20 16 17 18 20 20 21 22 21 21 21 20 21 21 22 22 22 22 20 19 18 17 17 17 16 16 15 15 15 15 15 15 14 14 14 13 12 11 11 10 10 10 10 8 7 5 4 4 5 6 7 7 7 8
2 1 1 2 2 2 3 3 5 4 5 7 8 12 13 11 9 11 7 3 5 6 3 1 6 8 8 8 6 4 7 22 33 28 28 31 29 29 27 27 26 25 24 20 16 17 18 18 19 21 21 21 21 20 20 20 20 21 21 22 21 20 19 18 18 17 17 16 16 16 15 15 14 14 14 14 14 13 13 12 11 10 9 9 9 9 8 7 6 5 6 6 8 8 7 7 8
2 2 1 2 3 1 3 4 5 5 7 7 9 13 13 11 9 6 0 5 3 5 4 3 9 10 9 5 3 5 9 22 29 25 25 28 29 30 29 27 27 27 28 22 17 17 18 18 19 20 21 21 21 21 20 20 20 21 21 21 20 19 18 18 18 17 17 16 16 16 14 14 13 13 13 13 13 13 13 12 12 10 9 9 8 9 9 9 8 8 8 8 9 8 8 7 7
2 2 3 3 1 3 4 4 5 7 8 7 10 11 7 3 5 2 4 6 4 5 5 3 7 8 8 3 2 7 14 21 24 25 27 28 28 28 28 28 27 26 27 24 19 19 20 19 19 19 19 20 20 21 21 21 21 21 22 21 20 19 18 18 18 17 16 16 15 14 13 13 12 12 11 11 11 12 12 12 11 11 9 9 9 9 9 9 9 9 9 9 9 9 8 7 6
2 2 4 1 3 3 4 4 5 6 7 6 8 9 5 3 6 6 5 6 4 4 3 4 9 7 6 3 4 5 11 17 23 28 30 31 28 28 28 28 28 26 25 24 20 20 22 21 21 20 18 19 19 20 20 21 21 21 21 20 19 19 18 18 17 17 16 15 14 13 12 11 11 11 10 10 9 10 11 11 11 11 9 9 9 9 9 9 9 8 9 8 8 9 8 7 5
3 2 4 1 2 1 4 4 4 4 5 7 6 8 6 2 4 5 8 7 4 2 3 6 10 9 6 4 4 2 7 16 26 31 31 32 30 29 30 30 31 30 29 26 20 20 23 22 21 20 19 19 19 19 19 19 20 20 20 19 19 18 18 17 16 16 15 14 13 12 11 10 10 10 9 9 8 8 9 10 10 10 9 9 9 9 8 8 8 8 8 7 7 7 7 6 4
5 1 4 1 3 2 4 4 4 3 5 7 6 6 4 4 2 4 8 7 2 2 7 5 4 6 7 8 5 5 12 21 28 32 33 32 31 31 32 33 31 30 30 27 23 20 20 22 20 19 19 20 19 18 18 18 19 19 19 19 18 18 17 17 16 15 14 14 13 12 11 10 10 9 8 8 8 8 8 9 9 9 9 9 9 8 7 7 7 7 7 7 6 6 6 5 4
4 1 2 1 3 3 4 4 2 1 5 5 7 6 5 5 4 3 1 5 3 1 5 2 3 3 10 9 11 17 22 26 30 34 33 32 31 30 30 30 28 27 27 23 21 20 17 20 20 17 18 19 18 18 18 18 18 18 18 18 17 17 16 16 15 15 14 13 12 12 12 11 11 10 9 8 8 8 8 8 8 8 8 8 8 7 7 6 7 7 7 7 7 6 6 5 5
2 2 1 2 4 4 4 3 1 1 6 7 11 8 4 5 5 2 3 8 7 4 7 5 6 5 9 11 22 30 29 30 33 33 30 29 28 27 26 26 26 25 26 22 19 18 15 17 18 17 16 17 18 17 17 17 17 17 17 16 16 15 15 15 15 14 13 13 12 12 11 11 12 11 10 9 8 8 7 8 8 7 8 7 7 7 6 6 6 7 6 6 6 6 5 5 5
2 2 3 4 5 5 3 2 2 2 6 10 11 7 3 3 4 3 5 9 8 9 9 8 12 11 13 21 31 32 30 31 32 30 27 25 25 24 22 22 22 20 21 20 18 16 14 15 16 16 16 16 17 17 17 17 17 17 17 16 15 14 13 14 14 13 13 13 13 12 12 12 12 12 11 10 9 8 8 7 7 7 7 7 6 6 6 5 6 7 6 5 5 5 4 4 4
3 3 2 5 5 4 2 2 3 3 6 8 8 6 4 3 3 3 5 4 6 10 8 9 15 13 15 21 26 26 26 26 26 28 24 22 22 22 20 19 19 18 18 19 18 16 14 14 15 15 16 16 16 17 17 17 17 17 17 16 15 15 13 13 14 13 14 13 13 12 12 13 12 12 10 9 8 8 7 7 7 7 7 7 6 6 5 5 6 6 7 5 4 4 4 4 3
2 3 3 5 5 5 5 4 5 5 7 7 6 6 6 5 4 2 2 4 5 8 6 9 12 12 14 15 18 20 20 18 19 23 21 21 22 22 22 21 20 19 20 21 20 19 17 14 15 16 16 17 17 18 18 18 17 17 17 16 15 15 14 14 14 14 14 14 13 12 13 13 12 12 9 8 8 8 7 7 7 7 7 6 6 5 5 5 6 6 6 6 5 4 3 4 4
2 4 5 6 5 6 6 7 8 6 7 6 4 4 6 7 3 1 2 3 2 5 7 12 16 17 17 14 13 14 14 14 15 18 19 20 20 22 23 23 23 23 24 24 22 22 21 17 17 17 17 18 18 18 18 18 18 17 17 16 15 15 15 14 14 14 14 14 13 13 13 12 12 11 10 9 9 8 8 8 7 7 7 6 5 5 5 5 5 5 5 6 5 4 3 4 4
2 4 6 8 6 6 7 8 8 6 7 7 2 2 3 6 5 4 2 1 4 4 6 14 19 19 19 16 14 13 12 11 12 15 17 18 19 21 23 24 25 24 25 27 26 25 24 21 19 20 19 19 19 19 18 18 18 18 17 16 15 15 15 15 14 14 15 15 14 14 13 13 12 12 11 10 10 9 9 8 7 7 7 5 5 5 5 4 4 4 4 5 4 4 4 4 4
3 5 6 8 8 7 8 7 5 4 4 7 2 1 1 4 6 5 4 2 3 7 12 16 17 17 19 17 15 13 12 11 11 14 17 19 19 20 23 26 27 27 26 27 27 26 25 23 22 21 20 19 19 18 18 18 18 18 17 16 16 16 16 15 16 16 15 15 15 15 15 14 13 13 12 11 11 10 9 9 7 7 7 6 5 5 5 4 3 3 3 4 5 6 6 5 2
5 6 7 9 9 9 10 8 6 5 6 7 3 0 1 2 2 3 5 3 8 15 17 18 17 17 19 16 13 12 11 11 11 14 18 21 21 22 25 28 29 28 27 27 26 25 24 23 22 22 20 20 19 17 17 17 18 18 17 17 17 17 17 17 17 17 16 16 15 16 16 15 14 13 13 12 11 11 9 9 8 8 7 6 6 5 5 4 3 2 3 4 6 8 8 5 2
5 7 9 8 8 9 11 8 6 7 6 6 5 2 4 6 3 3 5 8 15 17 16 18 17 17 16 15 13 11 10 10 12 13 15 17 19 21 24 26 27 26 27 28 26 25 26 24 23 21 21 21 19 18 17 17 17 17 17 18 17 17 18 18 18 18 17 16 15 16 16 16 15 13 13 12 12 11 10 9 9 8 7 7 6 6 5 4 3 3 3 4 6 9 8 6 4
6 8 9 8 9 11 10 8 7 7 5 5 6 5 6 6 3 4 3 11 15 16 16 16 17 17 15 13 12 11 11 10 11 13 14 16 17 19 23 24 25 26 27 28 28 27 27 25 23 22 22 22 20 19 18 17 18 18 18 18 18 18 18 18 19 18 18 16 16 16 17 16 15 13 12 12 12 12 10 10 10 8 7 7 8 7 6 5 4 4 5 4 6 8 8 8 7
5 7 8 8 11 11 8 7 7 4 3 5 6 6 7 4 4 2 2 12 17 17 16 14 16 16 14 12 11 11 11 12 15 15 14 15 16 19 23 23 23 25 28 28 29 27 26 25 24 23 23 21 20 19 19 19 20 20 20 19 19 18 18 18 19 19 18 17 17 17 17 16 14 13 12 11 11 12 11 11 11 10 9 9 9 8 8 8 7 6 7 6 6 7 8 8 9
6 7 7 8 8 7 5 4 5 3 3 5 4 5 5 1 4 8 9 11 17 18 15 14 14 12 12 12 10 8 9 13 17 16 14 15 18 21 24 25 24 25 27 26 25 25 24 24 23 22 22 20 19 19 19 20 22 22 21 21 20 19 17 18 18 18 18 17 17 16 16 15 14 12 12 11 10 11 11 10 10 10 8 9 10 10 12 13 11 8 7 8 8 7 8 8 9
7 6 4 8 5 5 7 4 3 1 3 3 2 4 6 3 3 13 14 10 14 18 15 13 13 11 11 11 8 7 7 11 13 14 17 21 24 26 27 27 26 26 27 24 22 23 23 21 21 21 22 20 19 18 18 20 22 22 21 21 20 19 17 17 18 18 17 17 17 16 15 15 14 13 12 11 10 9 10 11 10 9 9 12 13 14 16 15 11 8 7 9 10 9 10 10 10
6 4 1 4 6 6 7 3 4 3 3 2 3 3 7 5 4 13 15 14 15 15 13 12 12 11 10 10 9 7 8 10 11 14 20 25 27 28 29 27 27 27 26 25 24 24 23 21 21 21 22 21 19 17 17 19 21 21 21 21 20 19 17 17 18 17 16 16 17 15 14 15 15 14 12 11 10 9 10 11 10 9 11 15 15 14 15 12 9 7 7 10 12 12 13 12 13
4 4 3 3 2 5 5 4 5 5 3 5 5 3 8 7 5 14 14 16 18 14 12 12 11 10 9 9 10 9 8 11 14 18 22 26 28 28 27 26 25 25 25 25 26 26 24 22 22 23 22 22 20 17 17 18 19 21 20 19 19 19 17 17 17 16 15 14 16 15 14 15 15 14 12 11 10 10 11 10 8 9 12 14 13 12 12 10 9 6 6 9 11 12 13 11 13
2 2 4 4 1 6 7 4 6 6 4 7 7 5 7 8 6 16 15 16 18 15 12 11 12 11 10 9 9 9 9 11 15 19 22 24 27 26 26 27 24 22 24 25 26 25 24 22 23 24 24 22 20 17 16 17 17 18 17 16 17 17 16 16 16 16 15 14 14 15 15 15 15 15 13 12 11 12 12 9 7 9 11 12 11 11 11 12 10 5 4 9 13 15 14 12 13
4 1 3 4 3 5 6 6 7 10 5 4 8 6 3 6 4 15 16 15 16 15 12 12 13 12 11 9 8 9 8 9 11 16 21 24 25 23 24 27 25 22 24 25 26 26 25 24 25 26 25 23 20 17 16 18 17 16 14 14 14 15 14 14 14 14 14 14 14 14 15 15 15 15 14 14 14 13 11 9 9 11 12 12 12 11 11 14 12 7 7 10 13 15 15 14 13
4 2 1 4 4 4 5 8 7 9 8 6 8 7 4 5 4 16 16 14 15 15 14 13 12 11 10 9 9 9 9 10 10 14 21 22 19 18 18 20 22 24 25 27 29 29 27 26 25 26 26 23 20 18 16 18 18 16 14 12 10 11 12 12 12 12 12 12 12 13 15 15 15 14 13 13 15 15 12 10 10 11 12 12 12 11 11 14 13 9 8 9 10 11 12 12 10
3 2 2 3 3 4 6 8 8 7 9 8 8 7 7 4 6 16 16 15 15 14 14 13 12 11 10 9 9 9 9 10 11 16 21 19 16 15 15 17 22 27 30 31 33 32 30 28 27 27 26 23 21 18 17 19 19 18 16 14 11 10 10 10 9 8 9 10 10 11 13 13 13 11 10 10 12 15 13 10 9 9 9 10 11 10 10 13 12 9 8 7 7 8 8 8 7
6 5 4 3 3 5 7 10 9 6 9 8 10 8 6 3 2 10 10 10 12 12 12 10 10 11 10 10 9 10 11 10 10 16 19 18 18 16 16 21 26 30 32 33 33 32 31 30 29 27 26 23 22 21 20 20 20 19 18 16 15 14 12 10 9 7 6 7 7 9 10 10 10 7 6 7 8 10 9 7 8 8 9 9 9 8 8 11 10 8 7 5 6 7 7 6 5
7 2 2 3 2 5 7 8 7 5 9 5 7 6 3 2 3 5 5 4 8 12 11 10 11 11 11 11 11 11 11 8 8 12 16 18 18 17 21 26 28 29 32 33 32 31 31 29 28 27 25 24 24 23 22 21 21 20 18 17 16 15 14 13 11 9 8 7 6 6 7 6 5 4 5 5 6 5 3 4 5 6 8 8 5 5 6 8 8 8 7 5 5 6 6 6 6
3 1 1 3 1 5 8 5 6 4 6 1 1 7 6 3 4 4 9 8 8 11 12 12 12 11 10 11 12 11 8 5 5 8 13 16 16 19 26 27 27 29 30 31 30 29 28 27 26 26 25 24 24 23 22 20 19 20 19 18 16 14 13 13 12 11 10 9 8 7 6 5 4 4 4 5 6 5 3 4 4 5 6 5 4 5 5 6 7 8 8 7 7 6 6 6 6
1 1 1 4 2 4 7 5 7 6 5 1 1 5 5 6 5 5 12 13 10 12 14 15 14 12 10 11 12 10 8 7 7 8 11 14 15 21 26 25 27 30 29 28 28 26 25 23 24 25 24 23 23 22 21 20 18 19 20 20 18 15 12 11 13 13 13 11 9 7 5 4 4 4 4 4 7 7 5 5 5 6 7 6 6 6 6 6 8 8 9 9 9 8 7 6 7
1 1 1 3 2 0 4 7 7 5 3 2 1 1 2 4 3 2 9 11 9 10 11 12 13 14 14 14 13 13 12 11 11 10 9 12 15 21 24 23 25 28 28 28 27 25 24 23 24 25 23 23 23 22 22 21 20 20 21 22 20 18 15 13 12 12 12 11 10 8 6 4 6 6 5 5 8 9 6 4 4 6 9 8 6 7 7 7 8 9 9 10 10 9 8 7 8
3 3 3 3 2 3 4 6 6 6 5 2 5 5 5 3 4 1 2 4 8 8 7 8 8 8 9 11 13 14 14 14 14 12 10 10 13 19 23 23 24 27 28 29 27 26 25 24 25 25 24 24 24 23 23 22 22 24 26 24 22 20 18 16 14 12 11 10 9 9 7 6 7 9 8 8 9 9 7 5 4 7 9 9 8 8 8 7 6 7 8 9 9 10 9 8 8
4 4 6 6 4 5 6 5 4 5 5 3 5 4 6 4 3 3 2 2 7 7 8 11 9 5 5 9 11 11 11 10 11 13 12 10 12 18 21 23 24 25 27 29 28 26 25 25 25 26 26 26 25 23 23 24 24 26 28 26 23 22 19 17 16 15 12 11 10 8 8 8 8 9 9 9 10 9 7 7 7 8 9 10 10 10 10 9 8 7 7 7 8 9 10 10 9
2 5 7 6 5 4 5 3 2 2 2 4 3 4 4 6 5 6 1 5 8 7 8 10 9 8 8 8 9 10 10 9 8 9 10 9 12 16 19 22 25 25 27 29 29 27 27 26 25 27 27 25 24 23 24 25 25 25 25 24 22 22 20 17 17 17 15 14 13 10 9 8 8 8 7 8 9 9 9 8 8 9 10 12 12 12 12 11 10 8 7 6 7 8 9 10 10
3 6 5 5 3 3 3 4 3 2 3 4 4 5 2 4 5 5 2 3 5 7 9 9 9 10 10 9 10 12 12 11 9 8 8 9 11 15 19 23 26 28 29 30 30 29 28 26 26 29 26 23 24 26 26 25 25 25 23 21 20 20 20 20 19 18 17 16 15 13 10 9 8 8 8 7 8 10 10 10 10 10 13 13 12 12 12 11 11 10 9 8 7 7 7 8 10
7 7 5 4 3 5 4 6 3 1 2 4 6 3 3 4 6 5 3 1 3 5 9 11 11 11 11 11 10 10 10 11 10 10 10 9 11 17 22 25 26 29 31 32 32 31 30 28 28 29 25 23 26 27 27 25 24 25 23 21 20 19 20 21 20 19 17 17 16 14 12 11 10 9 9 9 10 12 13 13 12 13 15 14 12 12 12 11 10 10 11 11 10 8 7 6 8
7 4 3 2 2 3 4 6 3 3 4 3 6 1 1 4 5 5 4 3 5 4 4 9 13 12 10 9 8 7 8 9 11 12 11 12 16 20 24 25 25 28 31 32 32 32 32 30 30 30 27 27 29 27 27 26 25 24 23 23 22 21 22 22 20 19 19 18 17 15 14 12 11 10 10 11 13 14 14 13 12 13 14 12 11 11 11 10 9 9 10 11 11 11 10 9 9
3 1 1 3 6 4 4 4 4 4 2 5 6 1 4 1 5 4 2 2 3 3 3 3 10 12 9 8 7 8 8 8 9 8 7 10 16 18 21 23 24 26 27 29 30 31 32 32 33 32 28 28 30 28 27 27 25 25 24 25 25 24 25 24 22 22 21 19 18 17 14 13 12 12 13 13 14 14 14 12 11 11 11 11 10 9 9 9 9 9 9 10 11 12 12 12 11
2 3 3 3 4 5 5 5 4 3 3 6 6 1 6 2 5 4 5 5 2 7 6 6 10 10 8 7 7 6 6 6 6 6 5 7 9 12 15 19 22 24 25 27 28 29 31 33 33 33 32 31 32 30 27 27 26 24 25 25 25 26 26 25 25 24 22 21 19 17 15 15 14 14 14 15 15 14 12 11 11 11 12 11 11 9 8 8 9 10 10 10 11 12 12 11 11
4 3 5 5 2 4 3 4 2 1 4 4 5 1 4 2 6 5 7 7 2 4 4 9 13 11 9 8 8 6 6 6 6 6 6 5 6 8 12 15 18 22 24 25 27 28 30 32 33 33 28 21 21 21 19 22 24 24 26 27 26 27 26 25 25 25 23 21 19 18 18 17 16 15 15 15 15 14 12 12 12 12 11 11 11 11 10 9 9 11 12 11 11 10 9 9 10
3 3 3 4 2 2 1 3 1 1 3 4 4 0 1 3 4 5 7 5 2 3 4 6 10 11 10 9 8 8 6 7 6 5 6 5 5 8 11 14 17 19 21 23 25 26 26 26 24 19 8 10 12 14 14 16 21 22 25 27 27 28 27 25 25 24 23 21 20 20 19 18 17 16 16 17 16 14 14 14 14 13 12 11 11 11 11 11 11 12 12 11 11 10 9 10 11
3 4 5 4 4 4 3 3 2 3 3 4 4 2 2 2 3 4 5 5 6 9 8 8 9 7 8 8 8 8 7 6 6 6 6 5 6 8 10 13 16 19 20 20 22 22 21 21 18 13 9 8 16 24 22 18 21 24 24 26 28 29 26 24 25 24 23 21 20 21 20 18 17 17 17 17 16 16 16 16 15 14 13 12 12 11 12 12 12 12 12 12 11 10 10 12 12
3 2 5 2 5 5 3 3 5 4 1 2 2 0 3 4 3 2 7 8 8 11 10 11 10 7 7 8 7 7 6 5 5 6 6 5 8 10 8 7 11 20 23 22 23 23 24 24 20 18 20 21 26 32 29 24 26 27 23 24 28 28 25 24 24 24 23 21 20 20 19 18 18 18 18 17 16 15 15 16 16 15 14 12 11 10 10 11 12 12 12 12 11 11 11 13 12
2 2 1 4 5 7 4 1 1 4 3 2 1 2 4 2 1 3 7 8 8 10 12 11 9 8 8 7 6 6 5 5 5 5 5 5 8 11 11 12 11 18 23 24 25 26 26 26 23 20 20 22 28 34 33 30 31 27 21 22 26 26 24 24 25 25 23 21 20 19 18 18 18 19 19 18 16 14 14 15 17 16 14 12 11 10 9 10 10 10 10 11 11 10 11 11 11
3 1 3 1 3 4 4 2 2 4 2 4 2 2 2 2 1 4 6 5 4 6 10 11 9 9 9 6 6 6 5 5 5 5 5 6 9 12 14 14 14 19 22 24 25 25 25 25 24 24 23 23 26 30 31 28 26 22 19 22 25 25 25 25 25 25 24 24 22 20 19 19 19 19 19 18 17 14 13 14 16 16 15 13 12 10 8 9 9 9 9 9 10 9 10 10 9
4 4 3 3 3 1 1 2 1 1 2 3 3 0 1 1 2 4 5 1 3 5 4 7 8 9 10 8 7 7 6 6 5 5 5 6 9 13 16 16 14 18 21 23 23 23 24 25 26 27 26 23 22 24 25 24 22 19 18 22 25 26 26 26 25 25 25 26 25 23 21 20 19 19 18 18 18 16 15 15 15 15 15 14 12 10 8 8 8 7 7 7 7 7 7 9 8
3 2 2 2 3 3 2 2 3 3 2 2 2 2 1 3 4 3 4 5 6 6 3 2 3 5 7 7 7 7 6 6 5 5 6 6 10 14 17 18 16 14 16 19 21 22 23 24 26 27 23 18 17 21 24 25 24 21 19 21 23 24 26 26 25 25 26 26 26 25 23 21 20 19 18 18 18 17 16 16 15 15 15 15 13 11 10 9 8 7 7 7 7 6 5 6 5
5 4 3 1 2 1 1 1 1 4 4 2 1 2 3 4 3 3 3 4 7 9 6 3 3 3 4 5 6 5 6 6 5 6 6 6 11 15 17 18 18 15 15 17 19 20 21 23 25 26 20 16 17 21 26 24 20 20 21 22 23 24 25 26 25 25 26 26 26 25 24 22 21 20 19 18 18 17 16 16 16 16 16 15 14 13 12 11 11 9 8 8 8 8 7 5 4
1 1 2 1 3 3 3 1 3 2 4 3 4 2 5 5 3 3 2 5 6 9 10 6 4 5 4 4 5 5 5 6 5 5 6 6 10 14 15 17 19 18 16 16 18 19 19 20 23 23 18 16 17 23 27 22 17 20 23 24 25 25 25 25 26 27 27 26 26 26 24 24 23 22 21 19 18 17 16 16 16 16 16 16 16 15 15 14 14 12 11 10 10 10 9 8 7
Wind_Direction
307 116 86 26 336 346 354 90 75 312 86 251 256 210 261 232 261 300 299 298 88 327 40 76 55 81 90 101 115 98 53 31 143 138 192 176 140 149 159 155 152 152 155 158 159 159 161 159 155 151 146 144 145 145 146 146 144 141 136 135 132 128 127 125 124 121 121 121 120 122 122 120 117 116 115 113 110 108 105 104 106 108 106 101 96 95 99 101 101 103 104 104 99 97 104 109 109
148 115 40 357 335 30 247 102 96 325 62 294 259 178 257 319 309 283 267 270 123 176 113 87 76 84 103 119 122 87 49 25 83 105 99 117 127 142 153 154 152 152 155 157 159 158 159 158 156 151 146 144 144 145 146 147 145 141 137 136 134 130 128 127 126 124 123 123 122 123 123 121 118 116 115 115 114 110 106 104 104 106 104 101 100 99 101 102 103 105 106 106 98 89 96 111 114
226 304 13 11 5 102 57 49 100 106 91 254 264 221 285 336 290 269 242 228 151 159 112 75 67 66 100 100 59 57 85 50 80 94 103 114 115 132 145 149 150 152 154 157 159 158 157 156 156 150 144 143 142 141 143 146 144 142 139 137 136 132 130 129 127 128 128 127 126 124 123 121 121 120 120 120 119 117 112 109 105 104 103 102 103 102 103 106 105 103 102 101 96 88 92 108 117
265 311 353 31 53 37 58 66 138 124 161 237 274 258 265 278 286 288 245 229 179 157 116 72 61 3 57 85 68 73 104 99 81 92 94 102 106 116 124 131 142 150 153 156 158 156 155 154 154 147 141 141 139 139 141 144 144 144 142 139 139 136 133 132 131 133 133 133 131 128 126 124 125 124 125 125 124 122 118 116 113 113 112 111 111 108 112 113 107 101 100 98 96 94 95 107 119
297 341 324 67 83 2 92 107 134 133 207 208 251 247 237 273 295 304 272 282 318 116 111 103 99 13 59 76 124 89 93 114 83 81 87 96 112 120 122 126 130 136 147 153 155 152 150 149 149 144 140 138 138 138 139 142 144 145 145 143 143 140 137 135 135 137 139 138 135 133 131 129 128 126 127 127 127 125 123 124 124 124 123 124 123 118 121 117 110 106 102 100 98 102 107 112 123
1 26 44 108 113 226 104 161 226 227 233 177 234 260 276 292 294 292 280 312 28 92 108 99 117 122 88 37 49 53 336 125 92 92 105 114 132 141 142 141 138 130 130 143 149 145 143 146 144 141 139 137 138 139 140 142 145 147 148 147 146 144 141 139 140 143 144 141 138 136 136 134 129 125 124 124 125 126 127 129 129 130 131 133 131 129 130 124 123 122 110 102 100 103 111 121 130
8 26 69 64 346 15 102 192 217 248 242 172 230 269 277 285 287 301 295 322 61 59 94 113 132 114 93 127 96 17 19 97 107 116 125 131 142 142 140 142 142 141 137 136 141 139 141 145 142 141 139 138 140 141 142 144 145 148 150 150 149 148 145 143 144 146 146 144 141 139 139 134 128 125 124 123 122 122 125 125 127 133 136 138 138 138 139 137 135 132 112 98 99 100 108 125 140
11 18 103 83 26 19 104 240 236 231 245 205 240 262 262 269 284 305 290 282 86 38 84 140 138 99 30 59 100 23 47 92 110 120 128 130 134 133 134 137 138 140 141 142 139 140 144 146 146 144 141 140 141 142 144 145 146 148 151 151 151 150 148 146 146 147 146 145 144 141 138 132 128 126 124 123 121 120 121 123 125 132 137 137 141 143 144 144 137 129 111 100 102 99 98 113 141
27 75 28 84 84 1 22 273 261 241 261 276 272 267 259 256 273 265 253 339 98 128 125 189 115 94 112 71 89 44 55 95 109 115 122 125 129 129 130 134 137 135 134 140 145 148 148 150 150 145 141 139 140 141 143 145 146 147 150 152 152 151 149 148 147 147 147 147 145 141 137 132 130 126 123 123 122 122 122 124 125 130 137 138 141 143 146 147 145 133 118 116 109 101 95 98 128
30 116 90 88 87 349 306 268 255 269 273 275 274 268 265 248 242 245 230 109 127 142 143 138 72 101 115 84 80 44 65 103 105 105 116 127 132 132 132 136 142 138 133 136 146 151 150 152 148 142 137 135 137 140 142 144 146 148 150 153 153 152 151 150 148 148 148 148 146 141 137 133 130 125 123 123 123 124 125 126 127 131 137 140 139 138 143 142 140 129 116 119 111 104 100 98 117
17 321 111 84 65 237 260 261 264 285 283 290 282 270 268 246 216 243 146 101 130 137 158 78 82 107 95 84 69 52 85 100 99 100 116 131 135 134 135 139 144 143 139 139 150 154 149 151 145 139 136 136 138 140 143 145 147 149 152 154 155 154 152 152 150 148 149 149 147 142 138 134 130 126 123 121 122 125 127 128 129 132 137 139 133 130 135 128 123 119 115 117 113 108 103 101 113
55 315 77 95 164 205 225 249 276 286 289 296 286 279 280 242 161 148 78 100 134 155 198 154 132 128 85 81 92 68 77 88 99 107 119 130 134 134 135 140 141 140 140 143 157 158 150 149 143 139 138 139 141 143 146 147 149 151 153 156 156 156 153 152 151 149 149 149 148 143 140 136 132 129 125 121 121 126 129 130 131 132 136 136 132 132 132 121 113 113 115 117 117 114 104 99 106
139 197 91 120 207 196 248 255 272 288 296 283 274 284 302 66 121 156 113 88 116 163 255 135 145 120 87 101 99 88 81 95 110 113 120 127 133 136 138 139 136 139 145 148 159 163 157 152 146 142 139 140 143 145 148 149 151 153 155 158 157 157 154 152 152 149 149 149 149 146 143 138 136 133 130 127 124 129 132 133 133 133 136 135 134 134 129 120 112 110 114 119 124 119 104 98 96
180 189 117 221 261 203 259 260 269 280 289 275 276 296 316 42 151 155 106 72 39 124 78 105 127 93 95 125 99 122 109 117 120 119 122 126 134 139 140 143 144 151 155 154 164 171 164 155 148 145 143 143 145 146 149 151 152 155 157 158 158 157 155 153 152 151 151 151 152 150 149 146 143 139 137 136 131 134 135 134 134 135 136 133 134 134 128 121 116 113 114 120 128 131 113 98 90
181 196 112 168 291 280 257 240 257 281 282 273 284 312 11 5 326 59 94 105 36 143 107 114 139 96 145 165 152 169 140 130 125 124 125 126 134 138 143 146 148 154 154 155 169 176 163 150 146 146 148 145 146 148 149 153 155 157 158 158 159 158 157 155 155 155 155 156 157 157 158 156 153 149 147 147 141 140 140 136 134 135 136 133 133 135 133 127 124 122 118 120 122 133 127 108 97
173 129 93 188 253 256 250 236 239 301 278 271 297 328 41 345 343 54 55 119 126 273 86 110 282 117 156 166 146 147 143 135 128 127 124 123 128 133 139 140 141 147 149 157 172 176 161 148 147 150 150 145 148 150 151 156 158 159 159 160 160 159 159 158 159 159 159 160 161 164 166 165 161 159 157 157 152 146 144 140 137 136 136 136 135 135 136 134 135 135 126 124 118 120 127 121 114
130 112 143 235 235 223 229 229 184 239 290 312 321 335 50 337 340 14 357 78 97 32 41 44 11 78 133 134 133 139 142 137 129 125 119 118 123 127 131 134 137 143 151 163 171 170 159 147 147 153 152 149 153 153 155 158 160 163 163 163 162 162 162 161 162 162 162 163 165 169 169 167 166 167 165 165 163 156 151 146 144 141 139 141 141 138 138 139 144 149 141 132 126 120 125 131 127
114 127 174 227 230 224 213 184 241 307 313 317 313 319 43 356 334 336 26 66 80 57 47 57 49 58 95 116 129 136 140 137 130 125 121 122 124 126 128 132 135 138 149 158 160 158 154 149 152 160 160 157 159 158 160 162 164 168 167 168 168 168 166 164 165 165 167 169 171 170 168 168 169 172 171 171 171 163 158 155 151 148 146 147 148 144 142 149 152 159 160 149 142 138 140 148 142
147 154 196 230 218 236 253 217 271 300 288 301 306 314 15 357 316 344 34 70 89 75 59 71 77 77 90 108 124 132 136 134 132 127 124 126 126 126 125 129 133 136 144 149 151 151 151 157 165 169 167 166 168 167 167 169 171 172 173 175 174 171 170 172 171 171 174 174 175 173 170 171 171 175 174 175 178 170 167 165 160 155 155 155 154 153 152 158 161 167 171 170 177 174 171 167 158
188 171 225 247 224 253 273 248 254 249 264 297 309 323 5 329 312 3 92 103 101 116 119 101 103 109 106 110 122 128 127 122 123 121 120 124 127 131 133 138 142 144 149 151 153 154 152 163 177 178 177 177 178 177 177 178 178 178 181 181 181 178 177 180 177 177 179 178 179 178 174 173 173 176 173 176 184 181 179 175 167 162 161 162 162 163 164 166 167 169 176 185 203 207 203 182 163
213 170 213 241 225 253 262 249 256 256 266 270 272 343 350 313 320 21 163 111 101 179 166 140 137 133 124 121 120 120 113 107 111 115 120 125 130 135 139 145 148 150 155 155 157 162 162 169 183 185 185 185 185 186 184 185 184 185 187 186 187 185 184 185 184 183 181 181 183 182 180 178 177 178 176 179 189 191 192 187 181 175 170 171 172 170 171 174 174 172 179 193 204 206 208 184 155
248 225 227 242 232 251 259 250 256 257 271 277 295 26 310 311 332 347 10 223 233 207 143 137 140 135 129 126 123 119 112 114 121 124 128 131 135 137 138 142 148 154 161 162 165 171 169 171 184 189 190 192 193 194 190 190 190 190 191 192 191 190 191 190 190 191 187 185 186 187 188 187 184 183 184 188 194 196 199 200 197 190 183 182 183 182 179 173 179 182 184 194 198 191 194 185 157
239 265 251 253 241 241 256 254 253 237 263 280 290 209 253 17 341 333 30 297 217 120 116 125 129 125 122 123 127 127 124 129 135 138 140 139 141 142 142 146 152 160 166 167 168 172 171 173 185 190 193 195 196 196 195 195 196 196 195 197 198 197 197 198 200 199 195 192 193 194 195 196 191 188 194 199 200 196 200 207 207 204 196 195 199 199 191 176 180 185 179 184 185 178 176 181 176
205 258 261 255 243 237 248 248 246 241 245 249 225 355 337 67 318 350 53 65 108 109 116 121 120 118 114 114 120 120 123 130 138 146 146 144 147 150 153 154 157 162 165 167 169 172 172 175 185 190 193 196 196 196 196 200 200 200 200 201 203 204 205 208 209 204 203 202 203 204 201 203 201 195 200 204 205 200 201 208 210 213 209 209 213 209 203 193 196 189 176 180 176 173 172 178 178
209 240 254 254 248 241 246 240 236 252 248 239 233 255 248 212 172 77 87 100 107 111 114 116 117 113 109 112 116 118 123 127 139 149 145 144 149 154 159 159 159 163 164 165 171 175 173 176 185 190 193 196 198 199 200 203 203 202 204 203 203 207 209 212 214 209 208 209 212 213 209 210 210 203 203 208 210 206 204 207 209 215 217 223 226 224 224 220 223 214 198 191 180 181 183 184 177
221 229 248 253 257 249 251 252 241 254 250 232 242 256 260 232 129 71 110 115 111 112 114 117 119 116 115 119 124 130 133 135 149 152 143 143 149 155 163 165 163 166 167 168 174 177 174 176 184 190 194 196 199 203 203 203 203 203 206 204 202 207 210 214 216 214 213 214 216 220 219 218 217 212 209 211 210 206 207 210 211 217 221 225 228 229 235 234 228 226 220 209 191 192 194 190 189
248 252 261 250 253 250 245 259 263 281 272 233 236 254 267 249 118 102 173 127 119 116 117 122 121 123 127 127 134 139 141 153 158 151 139 142 157 165 169 171 169 170 174 175 177 174 171 175 184 190 192 195 198 200 200 201 202 202 205 205 205 209 212 215 219 220 220 221 221 222 224 224 220 217 215 212 207 207 210 213 217 221 220 217 218 221 228 230 224 226 227 216 205 202 201 195 194
289 276 283 267 263 258 236 254 273 305 293 233 210 261 281 326 130 159 164 140 128 123 125 129 124 127 131 131 138 141 148 160 159 152 148 157 173 176 175 175 171 174 179 179 175 170 170 175 183 190 192 194 197 198 198 200 200 201 204 205 207 210 211 215 220 224 225 225 223 219 220 223 221 220 217 212 208 209 210 209 213 214 210 205 207 211 212 212 212 221 225 216 216 215 213 206 201
287 274 282 287 328 305 267 269 261 244 285 250 98 335 305 297 180 156 147 141 131 125 129 131 127 129 133 135 138 143 155 159 161 163 164 169 176 176 174 174 173 177 181 181 177 171 173 177 182 191 193 193 196 196 198 199 199 201 203 203 206 208 210 215 219 222 223 222 221 215 211 217 221 222 219 211 205 204 204 204 205 203 200 197 198 202 203 202 210 232 228 211 217 225 229 226 220
290 300 282 303 355 314 263 237 261 260 243 198 97 325 277 269 167 147 143 142 134 127 136 136 132 136 139 144 142 150 160 161 174 179 174 172 175 175 172 172 176 181 185 188 183 175 177 179 184 193 192 192 194 194 195 196 197 199 201 204 207 208 211 216 217 218 219 218 217 211 206 210 216 219 218 212 206 199 197 200 202 201 199 199 202 201 201 200 211 237 236 221 223 227 235 234 223
301 326 349 355 356 284 263 202 246 265 223 138 126 245 257 265 158 152 153 145 140 136 145 142 138 144 144 150 148 156 169 172 182 182 179 176 174 175 170 169 176 181 186 189 182 175 178 181 187 193 190 190 191 191 193 191 194 196 198 205 209 209 210 212 214 215 215 214 213 208 204 206 211 216 216 213 208 200 200 198 201 207 202 203 211 210 204 198 197 218 231 218 206 200 212 213 204
333 345 323 342 230 270 296 253 207 223 247 124 148 235 260 268 190 165 161 148 144 141 150 148 144 149 149 154 154 159 171 178 181 182 184 181 176 175 169 165 169 179 188 189 181 176 179 184 190 192 186 185 186 186 191 190 188 188 193 202 206 210 212 213 215 214 214 214 212 208 205 205 210 212 210 209 204 201 206 204 204 212 210 211 220 219 210 200 193 184 176 181 170 164 170 166 170
343 55 267 289 265 291 315 287 221 206 239 141 179 225 262 284 208 162 159 152 146 142 153 154 150 154 152 155 160 163 170 174 180 186 189 185 181 177 169 166 168 177 187 184 179 177 179 183 190 189 181 179 180 178 182 187 183 178 185 192 199 208 212 215 216 213 214 214 214 210 204 203 207 207 206 207 206 205 208 206 207 212 215 221 223 218 206 199 195 172 147 163 165 159 156 148 150
317 10 276 263 237 268 294 290 268 199 200 200 205 214 235 298 122 145 153 156 150 146 157 158 154 154 152 158 164 168 171 174 181 185 186 186 185 176 170 175 170 164 168 167 168 170 171 174 180 178 172 170 172 172 170 173 174 170 174 178 184 196 201 205 208 210 213 211 210 208 205 203 204 204 202 203 208 210 205 202 210 213 216 222 220 215 201 192 195 184 158 158 166 165 163 158 153
250 276 291 288 261 255 250 269 275 191 183 200 202 210 236 308 102 144 161 165 156 151 156 156 154 153 154 163 167 172 178 183 185 177 177 182 179 168 170 175 160 150 151 153 156 159 159 160 161 161 162 164 165 163 156 154 162 167 166 159 152 159 171 182 187 196 208 206 204 206 207 204 202 202 197 197 207 213 209 203 211 214 214 214 210 210 199 189 192 190 173 161 164 166 165 163 162
225 230 195 224 269 267 249 265 267 172 154 193 195 198 218 276 116 151 166 165 149 142 148 149 151 154 159 167 171 175 183 193 189 174 171 174 176 173 170 165 154 147 148 149 151 154 155 155 155 156 159 161 159 156 152 151 161 165 159 149 142 142 145 145 142 144 164 183 192 198 202 200 200 198 192 192 202 211 211 208 213 209 210 211 203 202 196 188 188 188 181 170 171 167 158 161 169
234 219 166 208 239 282 289 299 301 127 132 198 196 152 139 246 244 166 129 107 132 139 146 153 155 162 168 170 174 177 184 192 185 174 171 175 184 181 167 161 153 148 149 151 152 154 157 157 157 157 158 160 158 155 156 159 167 167 161 155 147 143 142 136 129 123 124 132 142 156 169 177 180 173 166 167 174 185 175 180 194 186 193 200 180 176 190 187 182 186 189 182 183 175 161 167 175
236 87 4 314 270 285 294 300 332 49 108 316 58 111 125 203 255 188 134 134 165 158 154 162 165 169 174 171 172 174 174 168 161 178 183 185 188 172 162 160 155 150 150 153 155 155 157 158 158 158 158 159 159 158 159 163 170 171 168 164 156 149 147 143 137 130 124 122 116 117 125 126 125 132 149 167 179 177 137 123 122 126 152 165 138 144 184 192 180 184 196 196 191 183 170 167 171
61 40 336 310 283 296 304 306 346 26 92 358 316 138 181 228 255 202 160 160 182 178 167 168 168 169 176 174 171 166 156 158 170 188 195 187 176 163 160 161 158 154 154 156 157 158 158 158 159 159 159 160 161 162 163 161 164 169 167 164 163 158 151 145 138 133 132 130 127 127 133 145 148 137 133 169 185 179 145 109 103 108 118 125 128 138 165 184 181 184 198 200 193 185 182 179 180
47 286 280 279 266 91 302 309 337 4 80 128 164 100 261 272 317 195 175 166 172 187 182 169 169 174 176 176 173 167 162 170 177 185 192 176 165 164 163 162 159 156 156 158 159 160 159 161 164 163 164 166 166 167 167 162 159 160 159 160 162 158 153 154 150 145 145 141 136 138 142 163 174 159 143 147 158 159 144 114 101 112 111 112 123 130 145 171 182 189 196 200 198 189 184 186 190
290 234 210 231 210 168 243 295 332 347 3 75 83 25 322 338 31 340 218 159 164 182 182 174 187 190 176 174 175 171 168 173 173 176 187 171 161 167 166 164 162 158 159 161 163 164 164 166 169 168 169 171 171 171 172 170 163 155 151 152 152 148 148 154 157 156 159 150 137 134 128 131 146 146 141 139 141 143 140 132 125 119 111 107 113 117 126 141 157 178 191 199 204 200 195 188 188
312 252 218 218 186 197 252 302 11 28 350 321 76 44 296 327 4 283 329 126 176 190 184 181 190 197 183 181 180 172 166 174 176 176 181 166 156 166 167 166 164 162 164 165 167 171 171 171 172 173 174 177 178 180 180 177 169 159 154 151 147 144 143 150 156 157 158 152 140 136 130 127 133 134 132 133 135 135 136 143 145 134 120 112 114 114 114 118 125 150 178 193 204 209 206 192 186
303 248 209 197 167 176 232 255 49 80 268 284 77 121 258 319 324 282 305 147 178 202 207 194 181 186 194 189 182 173 165 173 182 178 175 162 157 164 168 169 167 167 168 169 171 175 176 174 173 175 178 183 188 189 186 179 171 166 164 161 156 151 148 150 155 153 151 149 143 142 137 130 131 131 129 128 135 138 134 136 145 147 137 125 123 121 115 114 117 128 153 179 198 203 202 198 192
231 243 195 189 163 137 170 140 132 217 242 316 12 105 160 296 289 274 272 152 175 192 201 206 195 190 191 187 187 178 169 170 170 173 180 174 165 164 170 173 172 171 171 172 174 177 179 176 175 180 185 191 191 187 183 178 172 170 169 166 161 158 154 151 153 152 151 150 147 145 142 135 132 131 129 125 135 145 137 128 134 146 144 137 134 131 126 125 122 121 129 144 169 183 196 201 188
244 241 205 226 201 162 144 104 104 304 359 324 322 63 115 268 281 301 334 11 282 223 185 189 198 197 192 187 186 176 163 161 163 172 183 180 169 168 173 176 174 173 174 177 178 180 182 180 178 183 189 189 184 180 177 175 172 170 169 166 161 160 158 155 154 153 153 153 149 148 148 145 142 138 133 124 125 136 134 128 131 138 140 139 136 131 129 129 126 123 123 124 130 143 158 165 157
248 234 216 292 27 132 107 91 93 40 49 260 277 340 118 268 288 314 356 16 286 265 164 181 190 189 189 179 165 157 153 159 169 177 182 180 178 175 174 175 175 175 177 179 180 182 182 181 180 186 192 188 181 179 175 170 170 169 169 167 162 162 162 159 157 154 153 153 150 149 151 151 150 148 141 129 124 128 128 126 127 131 137 140 138 133 132 130 127 123 122 122 124 123 124 126 125
254 326 297 5 14 14 47 71 85 61 9 258 262 214 122 273 288 278 280 296 242 158 105 182 174 165 170 163 150 153 157 162 167 167 167 173 178 177 172 171 173 175 176 178 180 180 181 182 183 187 191 187 181 180 176 169 169 171 171 169 165 165 165 161 159 158 157 157 154 152 153 152 151 149 145 138 131 130 128 124 121 121 129 138 141 142 145 144 142 136 127 126 129 125 120 118 116
60 57 85 56 356 2 18 4 43 83 253 262 268 255 107 137 272 262 264 289 233 158 146 145 147 147 150 143 138 145 143 137 134 130 132 150 165 173 171 170 173 174 175 179 179 179 181 183 186 188 191 190 184 181 179 171 169 172 173 170 167 167 168 165 162 162 163 162 159 156 155 154 151 149 148 143 138 137 136 130 124 119 119 123 126 130 135 142 147 150 144 135 133 131 129 129 123
73 70 74 83 1 9 13 318 352 176 237 249 259 297 92 215 249 256 287 308 286 182 154 140 144 142 136 132 131 129 122 120 122 126 133 140 158 170 166 166 174 177 178 181 181 181 184 185 189 189 187 182 171 169 175 172 171 175 173 170 170 170 172 171 168 167 168 168 165 163 161 160 157 154 152 149 147 147 146 139 131 123 118 117 117 117 119 125 133 146 151 148 143 142 143 144 135
123 168 111 113 120 74 264 272 297 249 266 274 272 67 52 287 268 263 295 319 118 104 51 96 125 129 130 127 124 120 113 116 122 125 126 130 149 162 167 172 181 183 182 183 184 184 185 187 191 186 150 84 114 155 182 179 175 180 177 174 175 176 178 177 175 174 174 174 174 172 171 168 163 159 155 152 153 154 151 145 138 131 126 124 125 126 126 126 127 133 141 145 145 146 146 143 134
181 171 132 137 148 144 197 220 192 223 265 294 315 39 145 223 269 289 338 18 89 93 65 64 76 90 111 107 101 103 98 98 104 105 107 107 109 126 155 179 190 190 184 184 184 183 186 192 193 186 175 152 158 176 192 191 185 187 185 180 179 180 183 183 179 178 179 180 180 179 179 175 165 159 157 154 154 157 156 152 149 144 139 135 134 135 134 132 129 127 128 130 132 136 140 136 129
263 121 98 156 180 153 164 181 176 176 161 307 312 234 209 203 244 352 72 77 89 98 90 80 75 65 75 81 80 84 82 77 81 86 84 76 80 87 97 128 174 189 186 183 184 187 192 196 193 186 189 188 183 185 190 193 191 190 188 185 181 182 187 188 184 182 183 185 184 184 185 179 167 161 159 157 156 159 160 160 158 153 149 148 143 138 133 132 132 128 125 122 119 123 130 131 129
276 50 107 225 174 131 124 194 193 98 98 283 262 237 295 337 332 5 75 97 104 114 116 108 106 97 83 80 78 76 75 72 68 70 70 60 64 65 61 75 125 172 177 175 182 191 197 198 195 191 190 189 191 192 191 192 191 186 184 187 185 186 191 192 188 187 188 187 186 189 190 183 173 166 163 161 161 161 161 163 163 159 156 155 152 148 142 138 138 135 131 125 121 120 123 126 129
117 141 208 205 66 83 109 126 358 52 112 270 272 192 318 30 220 326 22 69 81 101 122 121 122 119 109 112 112 105 102 92 82 78 77 68 65 64 62 73 115 154 164 171 181 192 199 201 203 205 204 201 198 194 190 188 187 182 180 186 189 192 196 195 192 192 192 191 190 191 191 187 180 174 169 166 165 165 165 165 165 165 163 161 159 160 158 153 151 148 142 135 131 131 128 124 125
126 178 181 96 81 2 61 116 152 112 168 269 302 57 73 144 231 321 348 353 69 50 88 121 132 134 130 136 134 128 121 102 95 86 79 73 69 69 69 76 109 145 159 171 180 189 198 204 209 213 214 208 196 188 185 187 191 192 188 186 190 195 197 196 194 193 196 196 194 193 194 192 187 182 179 174 172 172 171 169 168 168 170 171 171 172 172 170 166 163 157 149 149 153 145 134 129
20 40 19 56 135 162 160 143 154 143 162 233 309 12 320 233 244 265 251 205 134 92 42 40 97 126 133 139 136 130 120 103 95 83 70 70 71 73 77 82 99 133 153 168 179 188 194 199 204 206 204 194 181 179 182 187 196 198 187 181 187 192 194 196 195 196 198 200 199 198 197 197 192 190 188 183 180 179 177 176 173 172 176 178 178 180 184 185 181 181 179 171 172 183 176 155 148
350 354 342 7 97 110 130 106 96 119 134 173 127 22 280 251 251 255 217 159 128 119 111 80 67 81 96 118 122 119 109 94 89 81 66 65 72 76 81 86 97 119 142 162 178 188 193 197 199 196 186 169 169 179 181 184 191 191 182 178 181 186 191 195 198 201 202 202 203 203 201 200 198 196 196 192 188 185 183 182 180 180 182 184 186 187 191 195 194 195 197 191 190 197 197 185 186
227 301 301 145 129 113 112 2 318 101 126 165 147 147 268 260 255 257 189 131 122 121 122 122 109 98 92 103 112 110 103 94 90 82 68 68 77 80 84 88 94 105 126 154 172 181 188 196 198 195 184 164 167 179 182 184 185 180 178 177 177 181 189 195 200 206 207 205 205 205 203 202 202 201 202 201 198 194 190 187 186 187 187 189 192 193 195 198 199 202 204 204 205 209 209 206 210